Regional Weather Roundup
Issued by NWS Wakefield, VA

Home | Current Version | Previous Version | Text Only | Print | Product List | Glossary On
Versions: 1 2 3 4 5 6 7 8 9 10 11 12 13 14 15 16 17 18 19 20 21 22 23 24 25 26 27
000
ASUS41 KAKQ 260415
RWRAKQ

REGIONAL WEATHER ROUNDUP
NATIONAL WEATHER SERVICE WAKEFIELD VA
1200 AM EDT SUN JUN 26 2016

Note: "fair" indicates few or no clouds below 12,000 feet with no
significant weather and/or obstructions to visibility. * = Denotes
station may not report precipitation (e.g., rain,snow,etc.),
thunder or fog.

VAZ042-051-052>054-056-260500-
NORTHERN VIRGINIA

CITY           SKY/WX    TMP DP  RH WIND       PRES   REMARKS
WASH NATIONAL  FAIR      73  58  59 S7        30.20S
DULLES         FAIR      67  59  75 CALM      30.21R
FORT BELVOIR   FAIR      64  61  91 CALM      30.20S
QUANTICO       FAIR      75  64  68 S12       30.21S
FREDERICKSBRG* FAIR      67  67 100 CALM      30.19S
STAFFORD*      FAIR      62  61  96 CALM      30.23S
WARRENTON      FAIR      65  60  84 CALM      30.21R
CULPEPER*      FAIR      65  64  99 CALM      30.22R FOG
MANASSAS*      FAIR      64  64 100 CALM      30.21R
LEESBURG*      FAIR      70  64  83 S3        30.22S
WINCHESTER     FAIR      66  63  88 CALM      30.21S
FRONT ROYAL*   FAIR      64  63  94 S5        30.20S
LURAY*         FAIR      66  66 100 CALM      30.23R
$$

VAZ048-049-060>072-079>083-260500-
CENTRAL AND SOUTH CENTRAL VIRGINIA

CITY           SKY/WX    TMP DP  RH WIND       PRES   REMARKS
RICHMOND       FAIR      68  65  90 SE5       30.20F
CHESTERFIELD*  FAIR      68  54  60 SE3       30.21F
PETERSBURG*    FAIR      66  66 100 CALM      30.20F
HANOVER        FAIR      65  63  93 CALM      30.21F
TAPPAHANNOCK*  FAIR      65  65 100 CALM      30.21S
QUINTON*       FAIR      67  66  98 CALM      30.20F
CHARLOTTSVILLE FAIR      67  65  93 CALM      30.22R
GORDONSVILLE*  FAIR      64  63  99 CALM      30.21S
ORANGE*        FAIR      64  64 100 CALM      30.23S
LOUISA*        FAIR      64  63  94 CALM      30.21R FOG
BUMPASS*       FAIR      65  64  95 CALM      30.21R
FARMVILLE*     MOCLDY    71  70  96 CALM      30.19F
CREWE*         FAIR      65  65 100 CALM      30.21S
FORT PICKETT*  FAIR      67  67  98 E6        30.20S
CHASE CITY*    FAIR      70  68  95 CALM      30.20S
CLARKSVILLE*   FAIR      70  70 100 E3        30.19F
SOUTH HILL*    FAIR      68  66  94 CALM      30.25F
LAWRENCEVILLE* FAIR      68  64  87 CALM      30.20S
EMPORIA*       FAIR      64  63  94 NE3       30.21S
$$

VAZ088>098-260500-
SOUTHEAST VIRGINIA

CITY           SKY/WX    TMP DP  RH WIND       PRES   REMARKS
NORFOLK        FAIR      70  63  78 E12       30.19F
VIRGINIA BEACH FAIR      71  62  73 NE7       30.18F
NORFOLK NAVAL  FAIR      70  64  81 E9        30.20F
WEST POINT*    FAIR      65  63  92 CALM      30.21F
SALUDA*        FAIR      67  65  91 CALM      30.19F
NEWPORT NEWS   FAIR      65  63  93 CALM      30.19F
LANGLEY AFB    FAIR      69  64  81 E10       30.18F
FORT EUSTIS    FAIR      66  61  83 CALM      30.18F
WILLIAMSBURG*  FAIR      68  66  94 CALM      30.20F
HR EXEC AP*    FAIR      61  55  82 CALM      30.21F
FRANKLIN*      FAIR      64  62  93 CALM      30.20S
US460-WAKEFLD  FAIR      65  63  93 CALM      30.19F FOG
$$

VAZ020-022-025-037-045-260500-
WEST CENTRAL AND SOUTHWEST VIRGINIA

CITY           SKY/WX    TMP DP  RH WIND       PRES   REMARKS
STAUNTON*      FAIR      62  61  96 CALM      30.26R
WAYNESBORO*    FAIR      65  63  95 CALM      30.25S
HOT SPRINGS VA CLOUDY    63  63 100 SE5       30.33R FOG
LYNCHBURG      FAIR      65  64  97 CALM      30.23F
DANVILLE       FAIR      70  67  90 NE5       30.21S
SOUTH BOSTON*  CLOUDY    70  68  95 CALM      30.20S
MARTINSVILLE   FAIR      64  62  96 CALM      30.25S
ROANOKE        MOCLDY    69  66  90 CALM      30.25S
BLACKSBURG     FAIR      65  64  97 CALM      30.30R
DUBLIN*        MOCLDY    68  65  90 CALM      30.29R
MARION*        FAIR      69  65  87 E3        30.30R
HILLSVILLE*    FAIR      65  65  97 CALM      30.29R
RICHLANDS*     FAIR      70  61  73 SE8       30.25S
WISE*          FAIR      70  57  64 CALM      30.25S
ABINGDON*      FAIR      73  66  78 E5        30.23S
$$

MDZ021>025-VAZ099-100-260500-
SOUTHERN MARYLAND AND THE DELMARVA PENINSULA

CITY           SKY/WX    TMP DP  RH WIND       PRES   REMARKS
PATUXENT RIVER CLEAR     71  58  63 SE7       30.20S
BAY BRIDGE APT CLEAR     73  55  53 SE7       30.20S
LEONARDTOWN    CLEAR     63  55  77 CALM      30.22S
DOVER          CLEAR     66  66 100 S5        30.21R
GEORGETOWN     CLEAR     63  61  93 CALM      30.22S
EASTON         CLEAR     66  59  78 SE3       30.25S
CAMBRIDGE      CLEAR     61  57  88 CALM      30.21S
SALISBURY      CLEAR     61  60  97 CALM      30.21S
OCEAN CITY     CLEAR     61  59  93 CALM      30.21S FOG
WALLOPS ISLAND FAIR      65  62  90 CALM      30.21S
ACCOMACK*      FAIR      61  59  94 CALM      30.20F FOG
$$

NCZ012>017-030>032-260500-
NORTH CENTRAL AND EASTERN NORTH CAROLINA

CITY           SKY/WX    TMP DP  RH WIND       PRES   REMARKS
ROANOKE RAPIDS FAIR      68  63  83 NE5       30.19S
RALEIGH        PTCLDY    74  68  81 E6        30.18S
ELIZABETH CITY CLEAR     69  65  86 NE10      30.18F
AHOSKIE*       CLEAR     66  63  89 NE3       30.20S
EDENTON*       CLEAR     69  69 100 NE3       30.19S
CURRITUCK*     CLEAR     70  64  82 NE6       30.19S
KILL DEVIL HLS CLOUDY    70  65  83 NE7       30.15F
MANTEO         CLOUDY    70  67  91 E10G16    30.16F
CAPE HATTERAS  PTCLDY    73  68  84 NE8G18    30.13F
TARBORO*       FAIR      68  66  91 CALM      30.19S
GOLDSBORO      MOCLDY    71  70  95 E7        30.17R
WASHINGTON     CLEAR     67  64  91 NE3       30.17R
GREENVILLE     CLEAR     70  68  94 NE3       30.19S
NEW BERN       MOCLDY    71  67  87 NE6       30.17R
WILMINGTON     CLOUDY    75  73  93 N8        30.14R
$$

VAZ048-260500-
ELSEWHERE

CITY           SKY/WX    TMP DP  RH WIND       PRES   REMARKS
HARRISBURG PA  CLEAR     75  60  59 SW8       30.18R
BALTIMORE      CLEAR     71  58  63 S3        30.19S
ANNAPOLIS      CLEAR     72  57  59 S7        30.19F
ANDREWS AFB    FAIR      67  58  74 SE1       30.20S
PHILADELPHIA   PTCLDY    71  55  56 S5        30.21S
HENDERSON NC   CLEAR     68  64  87 E3        30.20S
GREENSBORO     PTCLDY    72  68  87 NE5       30.20S
ROCKY MOUNT    CLEAR     70  66  87 CALM      30.19R
$$

VAZ100-260500-
MARINE

STATION/POSITION TIME  TEMP    WIND        PRES    WAVE   SWELL
                       AIR SEA DIR/SP/G            HT/PER HT/PER
                 (UTC) (F)     (DEG/KT/KT) (MB)    (FT/S) (FT/S)
CAPE MAY NJ      0300   66 71              1022.6S
LEWES DE         0300   66 71              1022.8S
15NM E FENWICK I 0350   68 71              1022.9R   3/ 6
OCEAN-CITY-INLET 0300   68 72              1023.1S
WACHAPREAGUE VA  0300   68 79              1022.6R
THOMAS POINT MD  0400   75 75  150/ 10/ 11 1023.9F
GOOSES REEF MD   0400   76 76  140/ 10/ 12 1023.5S   1/ 2
COVE POINT MD    0300   75                 1023.4R
SOLOMONS ISLAND  0300   76 78                N/A
BISHOPS HEAD MD  0300   72 81              1023.0R
PINEY POINT MD   0306          100/  6/  7   N/A
POTOMAC MD       0400   74 77  110/  8/ 10 1021.6F   1/ 3
CAMBRIDGE MD     0300   70 78              1022.1R
LEWISETTA VA     0300   74 80              1022.4S
RAPPAHANNOCK LGT 0300                      1023.4R
STINGRAY PT      0400   73 77   90/ 12/ 14 1022.7F   2/ 3
YORK RVR RNG VA  0300   72                 1021.9F
YORKTOWN VA      0300   73 77              1022.4S
JAMESTOWN VA     0400   71 80   50/  2/  4   N/A     1
DOMINION TERM VA 0300   72                 1022.7R
KIPTOPEKE VA     0300      75                N/A
CHES BAY BRIDGE  0300   71 75              1022.5R
CAPE HENRY VA    0300   70                   N/A
WILLOUBY STN VA  0300   71                 1023.6R
CAPE HENRY BUOY  0342      72                N/A     4/ 6
1ST LANDING BUOY 0400   71 73   60/ 14/ 16 1022.0F   2/ 3
64NM E OF VA BCH 0350   70 71   40/ 14/ 17 1021.1F   4/ 6   2/ 8
DUCK PIER NC     0300   70 73              1021.4R
44056 DUCK FRF   0341      73                N/A     4/ 6
OREGON INLET NC  0300   71 75              1021.3R
HATTERAS NC      0300   74 80              1020.1R
DIAMOND SHLS NC  0350   76 82   20/ 16/ 19 1019.5F   4/ 8   2/ 8
CAPE LOOKOUT NC  0400   75      40/ 17/ 18 1020.2R
$$




USA.gov is the U.S. government's official web portal to all federal, state and local government web resources and services.